Friday Harbor, WA

5:27 PM PDT on May 20, 2018 (GMT -0700)
Friday Harbor

Weather History for KFHR - June, 2013

Change the Weather History Date:

Sunday, June 16, 2013

  Actual Average Record
Temperature  
Mean Temperature 57 °F -  
Max Temperature 70 °F 65 °F 78 °F (2004)
Min Temperature 46 °F 45 °F 39 °F (2001)
Degree Days  
Heating Degree Days 8    
Growing Degree Days 7 (Base 50)    
Moisture  
Dew Point 50 °F    
Average Humidity 78    
Maximum Humidity 100    
Minimum Humidity 59    
Precipitation  
Precipitation 0.00 in - - ()
Sea Level Pressure  
Sea Level Pressure 30.05 in    
Wind  
Wind Speed 3 mph (SSW)    
Max Wind Speed 9 mph    
Max Gust Speed -    
Visibility 10 miles    
Events      
Averages and records for this station are not official NWS values.
T = Trace of Precipitation, MM = Missing Value Source: NWS Daily Summary

Daily Weather History Graph

Daily Weather History Graph

Search for Another Location

Airport or City:

Astronomy

Jun. 16, 2013 Rise Set
Actual Time 5:09 AM PDT 9:16 PM PDT
Civil Twilight 4:27 AM PDT 9:58 PM PDT
Nautical Twilight 3:28 AM PDT 10:57 PM PDT
Astronomical Twilight 1:31 AM PDT 12:56 AM PDT
Moon 1:27 PM PDT (6/16) 12:50 AM PDT (6/16)
Length of Visible Light 17h 30m
Length of Day
16h 06m
Waxing Crescent, 51% of the Moon is Illuminated
Jun 16
Waxing Crescent
Jun 23
Full
Jun 29
Last Quarter
Jul 8
New
Jul 15
First Quarter

Hourly Weather History & Observations

Time (PDT) Temp. Dew Point Humidity Pressure Visibility Wind Dir Wind Speed Gust Speed Precip Events Conditions
12:53 AM 50.0 °F 46.9 °F 89% 30.00 in 10.0 mi Calm Calm - N/A   Clear
1:53 AM 48.9 °F 46.9 °F 93% 30.01 in 10.0 mi Calm Calm - N/A   Partly Cloudy
2:53 AM 48.0 °F 46.9 °F 96% 30.01 in 10.0 mi Calm Calm - N/A   Clear
3:53 AM 46.9 °F 46.0 °F 97% 30.01 in 10.0 mi Calm Calm - N/A   Clear
4:53 AM 46.9 °F 46.0 °F 97% 30.03 in 10.0 mi Calm Calm - N/A   Clear
5:53 AM 46.9 °F 46.9 °F 100% 30.04 in 10.0 mi Calm Calm - N/A   Clear
6:53 AM 53.1 °F 50.0 °F 89% 30.04 in 10.0 mi Calm Calm - N/A   Clear
7:53 AM 57.0 °F 52.0 °F 83% 30.06 in 10.0 mi ESE 5.8 mph - N/A   Partly Cloudy
8:53 AM 59.0 °F 52.0 °F 78% 30.07 in 10.0 mi SSW 8.1 mph - N/A   Mostly Cloudy
9:53 AM 64.0 °F 54.0 °F 70% 30.07 in 10.0 mi Variable 4.6 mph - N/A   Clear
10:53 AM 60.1 °F 52.0 °F 75% 30.08 in 10.0 mi SSW 6.9 mph - N/A   Partly Cloudy
11:53 AM 64.9 °F 53.1 °F 65% 30.07 in 10.0 mi SW 6.9 mph - N/A   Clear
12:53 PM 68.0 °F 53.1 °F 59% 30.07 in 10.0 mi South 8.1 mph - N/A   Clear
1:53 PM 68.0 °F 54.0 °F 61% 30.06 in 10.0 mi SW 8.1 mph - N/A   Clear
2:53 PM 66.0 °F 53.1 °F 63% 30.05 in 10.0 mi SW 6.9 mph - N/A   Clear
3:53 PM 66.9 °F 54.0 °F 63% 30.04 in 10.0 mi ESE 8.1 mph - N/A   Partly Cloudy
4:53 PM 61.0 °F 52.0 °F 72% 30.04 in 10.0 mi East 5.8 mph - N/A   Clear
5:53 PM 57.9 °F 51.1 °F 78% 30.04 in 10.0 mi SE 9.2 mph - N/A   Partly Cloudy
6:53 PM 57.0 °F 50.0 °F 77% 30.04 in 10.0 mi ESE 6.9 mph - N/A   Scattered Clouds
7:53 PM 57.0 °F 51.1 °F 81% 30.05 in 10.0 mi SSW 4.6 mph - N/A   Scattered Clouds
8:53 PM 57.0 °F 48.0 °F 72% 30.06 in 10.0 mi SW 9.2 mph - N/A   Partly Cloudy
9:53 PM 57.0 °F 46.9 °F 69% 30.07 in 10.0 mi WSW 6.9 mph - N/A   Clear
10:53 PM 55.9 °F 48.0 °F 75% 30.08 in 10.0 mi WSW 6.9 mph - N/A   Partly Cloudy
11:53 PM 55.9 °F 48.0 °F 75% 30.08 in 10.0 mi SW 5.8 mph - N/A   Overcast